Time,TemperatureF,DewpointF,PressureIn,WindDirection,WindDirectionDegrees,WindSpeedMPH,WindSpeedGustMPH,Humidity,HourlyPrecipIn,Conditions,Clouds,dailyrainin,SolarRadiationWatts/m^2,SoftwareType,DateUTC
2013-09-29 00:01:00,54.8,51.6,29.92,SE,143,1.0,2.0,89,0.00,,---,0.00,0.00,VWS V14.00,2013-09-29 04:01:00,
2013-09-29 00:05:00,54.8,51.6,29.93,SE,143,0.0,2.0,89,0.00,,---,0.00,0.00,VWS V14.00,2013-09-29 04:05:00,
2013-09-29 00:07:00,54.8,51.6,29.93,SE,143,0.0,2.0,89,0.00,,---,0.00,0.00,VWS V14.00,2013-09-29 04:07:00,
2013-09-29 00:11:00,54.8,51.6,29.92,SE,143,0.0,2.0,89,0.00,,---,0.00,0.00,VWS V14.00,2013-09-29 04:11:00,
2013-09-29 00:17:00,54.9,51.7,29.92,SE,143,0.0,2.0,89,0.00,,---,0.00,0.00,VWS V14.00,2013-09-29 04:17:00,
2013-09-29 00:23:00,54.9,51.7,29.92,SE,143,0.0,2.0,89,0.00,,---,0.00,0.00,VWS V14.00,2013-09-29 04:23:00,
2013-09-29 00:29:00,54.9,51.7,29.91,SE,143,0.0,2.0,89,0.00,,---,0.00,0.00,VWS V14.00,2013-09-29 04:29:00,
2013-09-29 00:35:00,54.9,52.0,29.91,SE,143,0.0,0.0,90,0.00,,---,0.00,0.00,VWS V14.00,2013-09-29 04:35:00,
2013-09-29 00:41:00,54.9,52.0,29.91,SE,143,0.0,0.0,90,0.00,,---,0.00,0.00,VWS V14.00,2013-09-29 04:41:00,
2013-09-29 00:47:00,55.0,51.8,29.91,SE,143,0.0,0.0,89,0.00,,---,0.00,0.00,VWS V14.00,2013-09-29 04:47:00,
2013-09-29 00:53:00,55.0,52.1,29.91,SE,143,0.0,0.0,90,0.00,,---,0.00,0.00,VWS V14.00,2013-09-29 04:53:00,
2013-09-29 01:00:00,55.0,52.1,29.91,SE,143,0.0,0.0,90,0.00,,---,0.00,0.00,VWS V14.00,2013-09-29 05:00:00,
2013-09-29 01:06:00,54.9,52.0,29.91,SE,143,0.0,0.0,90,0.00,,---,0.00,0.00,VWS V14.00,2013-09-29 05:06:00,
2013-09-29 01:12:00,54.9,52.0,29.91,SE,143,0.0,0.0,90,0.00,,---,0.00,0.00,VWS V14.00,2013-09-29 05:12:00,
2013-09-29 01:18:00,54.9,52.0,29.91,SE,144,0.0,1.0,90,0.00,,---,0.00,0.00,VWS V14.00,2013-09-29 05:18:00,
2013-09-29 01:24:00,54.9,52.0,29.91,SE,144,0.0,1.0,90,0.00,,---,0.00,0.00,VWS V14.00,2013-09-29 05:24:00,
2013-09-29 01:30:00,54.9,52.0,29.91,SE,144,0.0,1.0,90,0.00,,---,0.00,0.00,VWS V14.00,2013-09-29 05:30:00,
2013-09-29 01:36:00,54.8,51.9,29.91,SE,144,0.0,0.0,90,0.00,,---,0.00,0.00,VWS V14.00,2013-09-29 05:36:00,
2013-09-29 01:42:00,54.8,51.9,29.91,SE,144,0.0,0.0,90,0.00,,---,0.00,0.00,VWS V14.00,2013-09-29 05:42:00,
2013-09-29 01:48:00,54.8,51.9,29.91,SE,144,0.0,0.0,90,0.00,,---,0.00,0.00,VWS V14.00,2013-09-29 05:48:00,
2013-09-29 01:54:00,54.7,51.8,29.91,SE,144,0.0,1.0,90,0.00,,---,0.00,0.00,VWS V14.00,2013-09-29 05:54:00,
2013-09-29 02:00:00,54.5,51.6,29.91,SE,144,0.0,1.0,90,0.00,,---,0.00,0.00,VWS V14.00,2013-09-29 06:00:00,
2013-09-29 02:06:00,54.5,51.6,29.91,SE,144,0.0,1.0,90,0.00,,---,0.00,0.00,VWS V14.00,2013-09-29 06:06:00,
2013-09-29 02:12:00,54.2,51.3,29.90,SE,138,0.0,1.0,90,0.00,,---,0.00,0.00,VWS V14.00,2013-09-29 06:12:00,
2013-09-29 02:18:00,54.0,51.1,29.90,SE,136,0.0,1.0,90,0.00,,---,0.00,0.00,VWS V14.00,2013-09-29 06:18:00,
2013-09-29 02:24:00,53.8,51.2,29.90,SE,134,0.0,1.0,91,0.00,,---,0.00,0.00,VWS V14.00,2013-09-29 06:24:00,
2013-09-29 02:30:00,53.6,51.0,29.89,SE,134,0.0,1.0,91,0.00,,---,0.00,0.00,VWS V14.00,2013-09-29 06:30:00,
2013-09-29 02:36:00,53.4,50.8,29.89,SE,135,0.0,1.0,91,0.00,,---,0.00,0.00,VWS V14.00,2013-09-29 06:36:00,
2013-09-29 02:43:00,53.2,50.7,29.89,SE,134,0.0,1.0,91,0.00,,---,0.00,0.00,VWS V14.00,2013-09-29 06:43:00,
2013-09-29 02:49:00,53.1,50.5,29.89,SE,134,0.0,1.0,91,0.00,,---,0.00,0.00,VWS V14.00,2013-09-29 06:49:00,
2013-09-29 02:55:00,53.0,50.5,29.89,SE,134,0.0,1.0,91,0.00,,---,0.00,0.00,VWS V14.00,2013-09-29 06:55:00,
2013-09-29 03:01:00,52.8,50.2,29.89,SE,136,0.0,1.0,91,0.00,,---,0.00,0.00,VWS V14.00,2013-09-29 07:01:00,
2013-09-29 03:07:00,52.7,50.2,29.89,SE,136,0.0,0.0,91,0.00,,---,0.00,0.00,VWS V14.00,2013-09-29 07:07:00,
2013-09-29 03:13:00,52.5,50.0,29.88,SE,136,0.0,0.0,91,0.00,,---,0.00,0.00,VWS V14.00,2013-09-29 07:13:00,
2013-09-29 03:19:00,52.3,50.0,29.89,SE,136,0.0,0.0,92,0.00,,---,0.00,0.00,VWS V14.00,2013-09-29 07:19:00,
2013-09-29 03:25:00,52.3,50.0,29.89,SE,136,0.0,0.0,92,0.00,,---,0.00,0.00,VWS V14.00,2013-09-29 07:25:00,
2013-09-29 03:31:00,52.3,50.0,29.88,SE,136,0.0,0.0,92,0.00,,---,0.00,0.00,VWS V14.00,2013-09-29 07:31:00,
2013-09-29 03:37:00,52.4,50.2,29.89,SE,136,0.0,0.0,92,0.00,,---,0.00,0.00,VWS V14.00,2013-09-29 07:37:00,
2013-09-29 03:43:00,52.3,50.0,29.89,SE,136,0.0,0.0,92,0.00,,---,0.00,0.00,VWS V14.00,2013-09-29 07:43:00,
2013-09-29 03:49:00,52.2,50.0,29.89,SE,138,0.0,0.0,92,0.00,,---,0.00,0.00,VWS V14.00,2013-09-29 07:49:00,
2013-09-29 03:55:00,52.0,49.5,29.89,SE,138,0.0,0.0,91,0.00,,---,0.00,0.00,VWS V14.00,2013-09-29 07:55:00,
2013-09-29 04:01:00,51.9,49.4,29.89,SE,138,0.0,1.0,91,0.00,,---,0.00,0.00,VWS V14.00,2013-09-29 08:01:00,
2013-09-29 04:07:00,51.8,49.3,29.89,SE,138,0.0,0.0,91,0.00,,---,0.00,0.00,VWS V14.00,2013-09-29 08:07:00,
2013-09-29 04:13:00,51.7,49.2,29.88,SSE,150,0.0,1.0,91,0.00,,---,0.00,0.00,VWS V14.00,2013-09-29 08:13:00,
2013-09-29 04:19:00,51.8,49.5,29.88,SE,126,0.0,1.0,92,0.00,,---,0.00,0.00,VWS V14.00,2013-09-29 08:19:00,
2013-09-29 04:25:00,51.8,49.3,29.88,East,94,0.0,1.0,91,0.00,,---,0.00,0.00,VWS V14.00,2013-09-29 08:25:00,
2013-09-29 04:31:00,51.7,49.2,29.88,East,96,0.0,1.0,91,0.00,,---,0.00,0.00,VWS V14.00,2013-09-29 08:31:00,
2013-09-29 04:37:00,51.7,49.2,29.88,East,96,0.0,0.0,91,0.00,,---,0.00,0.00,VWS V14.00,2013-09-29 08:37:00,
2013-09-29 04:43:00,51.6,49.1,29.88,East,96,0.0,0.0,91,0.00,,---,0.00,0.00,VWS V14.00,2013-09-29 08:43:00,
2013-09-29 04:49:00,51.6,49.1,29.88,East,96,0.0,0.0,91,0.00,,---,0.00,0.00,VWS V14.00,2013-09-29 08:49:00,
2013-09-29 04:55:00,51.6,48.8,29.88,East,96,0.0,0.0,90,0.00,,---,0.00,0.00,VWS V14.00,2013-09-29 08:55:00,
2013-09-29 05:01:00,51.6,49.1,29.88,East,94,0.0,1.0,91,0.00,,---,0.00,0.00,VWS V14.00,2013-09-29 09:01:00,
2013-09-29 05:07:00,51.7,48.9,29.88,East,91,0.0,1.0,90,0.00,,---,0.00,0.00,VWS V14.00,2013-09-29 09:07:00,
2013-09-29 05:13:00,51.9,49.1,29.88,East,91,0.0,1.0,90,0.00,,---,0.00,0.00,VWS V14.00,2013-09-29 09:13:00,
2013-09-29 05:19:00,52.1,49.3,29.88,East,91,0.0,1.0,90,0.00,,---,0.00,0.00,VWS V14.00,2013-09-29 09:19:00,
2013-09-29 05:25:00,52.1,49.6,29.87,East,91,0.0,1.0,91,0.00,,---,0.00,0.00,VWS V14.00,2013-09-29 09:25:00,
2013-09-29 05:31:00,52.0,49.2,29.88,East,86,1.0,2.0,90,0.00,,---,0.00,0.00,VWS V14.00,2013-09-29 09:31:00,
2013-09-29 05:38:00,52.0,49.5,29.88,ESE,106,0.0,1.0,91,0.00,,---,0.00,0.00,VWS V14.00,2013-09-29 09:38:00,
2013-09-29 05:44:00,51.9,49.1,29.88,ESE,110,0.0,1.0,90,0.00,,---,0.00,0.00,VWS V14.00,2013-09-29 09:44:00,
2013-09-29 05:50:00,51.7,48.9,29.88,ESE,107,0.0,1.0,90,0.00,,---,0.00,0.00,VWS V14.00,2013-09-29 09:50:00,
2013-09-29 05:56:00,51.6,48.8,29.88,ESE,108,0.0,1.0,90,0.00,,---,0.00,0.00,VWS V14.00,2013-09-29 09:56:00,
2013-09-29 06:01:00,51.5,48.7,29.88,ESE,112,0.0,1.0,90,0.00,,---,0.00,0.00,VWS V14.00,2013-09-29 10:01:00,
2013-09-29 06:08:00,51.3,48.8,29.88,ESE,112,0.0,0.0,91,0.00,,---,0.00,0.00,VWS V14.00,2013-09-29 10:08:00,
2013-09-29 06:14:00,51.2,48.7,29.88,ESE,112,0.0,0.0,91,0.00,,---,0.00,0.00,VWS V14.00,2013-09-29 10:14:00,
2013-09-29 06:20:00,51.2,48.7,29.88,ESE,112,0.0,0.0,91,0.00,,---,0.00,0.00,VWS V14.00,2013-09-29 10:20:00,
2013-09-29 06:26:00,51.2,49.0,29.88,ESE,112,0.0,0.0,92,0.00,,---,0.00,0.00,VWS V14.00,2013-09-29 10:26:00,
2013-09-29 06:31:00,51.2,48.7,29.88,ESE,104,0.0,1.0,91,0.00,,---,0.00,0.00,VWS V14.00,2013-09-29 10:31:00,
2013-09-29 06:38:00,51.2,49.0,29.88,ESE,104,0.0,0.0,92,0.00,,---,0.00,0.00,VWS V14.00,2013-09-29 10:38:00,
2013-09-29 06:44:00,51.1,48.9,29.88,ESE,104,0.0,0.0,92,0.00,,---,0.00,0.00,VWS V14.00,2013-09-29 10:44:00,
2013-09-29 06:50:00,51.1,48.9,29.88,ESE,104,0.0,0.0,92,0.00,,---,0.00,0.00,VWS V14.00,2013-09-29 10:50:00,
2013-09-29 06:56:00,51.1,48.9,29.88,ESE,104,0.0,0.0,92,0.00,,---,0.00,0.00,VWS V14.00,2013-09-29 10:56:00,
2013-09-29 07:01:00,51.0,48.8,29.89,ESE,105,0.0,0.0,92,0.00,,---,0.00,0.00,VWS V14.00,2013-09-29 11:01:00,
2013-09-29 07:08:00,50.9,48.7,29.89,ESE,105,0.0,0.0,92,0.00,,---,0.00,0.00,VWS V14.00,2013-09-29 11:08:00,
2013-09-29 07:14:00,50.9,48.7,29.89,ESE,105,0.0,0.0,92,0.00,,---,0.00,0.00,VWS V14.00,2013-09-29 11:14:00,
2013-09-29 07:20:00,50.8,48.6,29.89,ESE,105,0.0,0.0,92,0.00,,---,0.00,5.00,VWS V14.00,2013-09-29 11:20:00,
2013-09-29 07:26:00,50.8,48.6,29.89,ESE,105,0.0,0.0,92,0.00,,---,0.00,9.00,VWS V14.00,2013-09-29 11:26:00,
2013-09-29 07:31:00,50.9,48.7,29.89,ESE,105,0.0,0.0,92,0.00,,---,0.00,11.00,VWS V14.00,2013-09-29 11:31:00,
2013-09-29 07:38:00,50.9,48.7,29.89,ESE,105,0.0,0.0,92,0.00,,---,0.00,12.00,VWS V14.00,2013-09-29 11:38:00,
2013-09-29 07:44:00,50.9,48.7,29.89,ESE,105,0.0,0.0,92,0.00,,---,0.00,12.00,VWS V14.00,2013-09-29 11:44:00,
2013-09-29 07:50:00,50.8,48.6,29.89,ESE,105,0.0,0.0,92,0.00,,---,0.00,14.00,VWS V14.00,2013-09-29 11:50:00,
2013-09-29 07:56:00,50.8,48.6,29.89,ESE,105,0.0,0.0,92,0.00,,---,0.00,16.00,VWS V14.00,2013-09-29 11:56:00,
2013-09-29 08:01:00,50.8,48.6,29.89,ESE,105,0.0,0.0,92,0.00,,---,0.00,18.00,VWS V14.00,2013-09-29 12:01:00,
2013-09-29 08:08:00,50.8,48.6,29.89,ESE,105,0.0,0.0,92,0.00,,---,0.00,21.00,VWS V14.00,2013-09-29 12:08:00,
2013-09-29 08:14:00,50.8,48.8,29.89,ESE,105,0.0,0.0,93,0.00,,---,0.00,21.00,VWS V14.00,2013-09-29 12:14:00,
2013-09-29 08:20:00,50.9,49.0,29.89,ESE,105,0.0,0.0,93,0.00,,---,0.00,25.00,VWS V14.00,2013-09-29 12:20:00,
2013-09-29 08:26:00,51.1,49.4,29.90,ESE,105,0.0,0.0,94,0.00,,---,0.00,26.00,VWS V14.00,2013-09-29 12:26:00,
2013-09-29 08:31:00,51.3,49.3,29.89,East,101,0.0,1.0,93,0.00,,---,0.00,28.00,VWS V14.00,2013-09-29 12:31:00,
2013-09-29 08:36:00,51.5,49.5,29.89,East,101,0.0,0.0,93,0.00,,---,0.00,30.00,VWS V14.00,2013-09-29 12:36:00,
2013-09-29 08:42:00,51.8,49.8,29.89,East,101,0.0,0.0,93,0.00,,---,0.00,32.00,VWS V14.00,2013-09-29 12:42:00,
2013-09-29 08:48:00,52.1,50.1,29.89,East,101,0.0,0.0,93,0.00,,---,0.00,32.00,VWS V14.00,2013-09-29 12:48:00,
2013-09-29 08:54:00,52.4,50.4,29.89,East,101,0.0,0.0,93,0.00,,---,0.00,37.00,VWS V14.00,2013-09-29 12:54:00,
2013-09-29 09:01:00,52.7,50.7,29.89,East,101,0.0,0.0,93,0.00,,---,0.00,39.00,VWS V14.00,2013-09-29 13:01:00,
2013-09-29 09:07:00,53.0,50.7,29.89,East,101,0.0,0.0,92,0.00,,---,0.00,37.00,VWS V14.00,2013-09-29 13:07:00,
2013-09-29 09:13:00,53.3,51.0,29.89,ESE,102,0.0,0.0,92,0.00,,---,0.00,40.00,VWS V14.00,2013-09-29 13:13:00,
2013-09-29 09:19:00,53.8,51.5,29.89,ESE,102,0.0,0.0,92,0.00,,---,0.00,40.00,VWS V14.00,2013-09-29 13:19:00,
2013-09-29 09:25:00,54.2,51.9,29.88,ESE,102,0.0,0.0,92,0.00,,---,0.00,40.00,VWS V14.00,2013-09-29 13:25:00,
2013-09-29 09:31:00,54.5,51.9,29.88,ESE,103,0.0,0.0,91,0.00,,---,0.00,42.00,VWS V14.00,2013-09-29 13:31:00,
2013-09-29 09:37:00,54.9,52.3,29.88,ESE,103,0.0,0.0,91,0.00,,---,0.00,44.00,VWS V14.00,2013-09-29 13:37:00,
2013-09-29 09:43:00,55.3,52.7,29.88,ESE,103,0.0,0.0,91,0.00,,---,0.00,44.00,VWS V14.00,2013-09-29 13:43:00,
2013-09-29 09:49:00,55.8,52.9,29.88,ESE,103,0.0,1.0,90,0.00,,---,0.00,77.00,VWS V14.00,2013-09-29 13:49:00,
2013-09-29 09:55:00,56.1,52.9,29.88,ESE,103,0.0,1.0,89,0.00,,---,0.00,47.00,VWS V14.00,2013-09-29 13:55:00,
2013-09-29 10:01:00,56.8,53.3,29.87,ESE,116,0.0,1.0,88,0.00,,---,0.00,51.00,VWS V14.00,2013-09-29 14:01:00,
2013-09-29 10:07:00,57.3,54.1,29.87,ESE,116,0.0,1.0,89,0.00,,---,0.00,51.00,VWS V14.00,2013-09-29 14:07:00,
2013-09-29 10:13:00,58.0,54.5,29.87,ESE,116,0.0,1.0,88,0.00,,---,0.00,81.00,VWS V14.00,2013-09-29 14:13:00,
2013-09-29 10:19:00,58.6,54.8,29.87,ESE,116,0.0,1.0,87,0.00,,---,0.00,54.00,VWS V14.00,2013-09-29 14:19:00,
2013-09-29 10:25:00,59.2,55.0,29.87,ESE,116,0.0,1.0,86,0.00,,---,0.00,54.00,VWS V14.00,2013-09-29 14:25:00,
2013-09-29 10:31:00,59.7,53.9,29.87,ESE,116,0.0,1.0,81,0.00,,---,0.00,79.00,VWS V14.00,2013-09-29 14:31:00,
2013-09-29 10:37:00,60.2,54.4,29.87,ESE,116,0.0,0.0,81,0.00,,---,0.00,58.00,VWS V14.00,2013-09-29 14:37:00,
2013-09-29 10:44:00,60.7,54.5,29.87,SE,138,1.0,2.0,80,0.00,,---,0.00,62.00,VWS V14.00,2013-09-29 14:44:00,
2013-09-29 10:50:00,61.0,52.7,29.87,SSE,149,0.0,2.0,74,0.00,,---,0.00,60.00,VWS V14.00,2013-09-29 14:50:00,
2013-09-29 10:56:00,61.3,51.8,29.87,SSE,150,0.0,2.0,71,0.00,,---,0.00,60.00,VWS V14.00,2013-09-29 14:56:00,
2013-09-29 11:01:00,61.7,51.4,29.87,SSE,157,1.0,2.0,69,0.00,,---,0.00,60.00,VWS V14.00,2013-09-29 15:01:00,
2013-09-29 11:08:00,62.0,50.9,29.87,SSE,162,0.0,3.0,67,0.00,,---,0.00,60.00,VWS V14.00,2013-09-29 15:08:00,
2013-09-29 11:14:00,62.2,50.3,29.87,SSE,165,0.0,3.0,65,0.00,,---,0.00,60.00,VWS V14.00,2013-09-29 15:14:00,
2013-09-29 11:20:00,62.3,50.8,29.87,ESE,120,1.0,3.0,66,0.00,,---,0.00,62.00,VWS V14.00,2013-09-29 15:20:00,
2013-09-29 11:26:00,62.6,50.7,29.86,SE,143,0.0,3.0,65,0.00,,---,0.00,60.00,VWS V14.00,2013-09-29 15:26:00,
2013-09-29 11:31:00,62.9,50.5,29.86,SSE,149,1.0,3.0,64,0.00,,---,0.00,60.00,VWS V14.00,2013-09-29 15:31:00,
2013-09-29 11:38:00,63.4,50.2,29.86,SSE,155,1.0,2.0,62,0.00,,---,0.00,60.00,VWS V14.00,2013-09-29 15:38:00,
2013-09-29 11:44:00,63.5,50.3,29.86,South,178,0.0,2.0,62,0.00,,---,0.00,39.00,VWS V14.00,2013-09-29 15:44:00,
2013-09-29 11:50:00,63.6,50.8,29.86,South,172,0.0,2.0,63,0.00,,---,0.00,63.00,VWS V14.00,2013-09-29 15:50:00,
2013-09-29 11:56:00,63.8,50.1,29.85,NW,323,0.0,2.0,61,0.00,,---,0.00,63.00,VWS V14.00,2013-09-29 15:56:00,
2013-09-29 12:01:00,63.9,51.5,29.85,East,90,0.0,2.0,64,0.00,,---,0.00,62.00,VWS V14.00,2013-09-29 16:01:00,
2013-09-29 12:08:00,64.0,50.7,29.85,SSE,153,2.0,3.0,62,0.00,,---,0.00,62.00,VWS V14.00,2013-09-29 16:08:00,
2013-09-29 12:14:00,64.2,51.4,29.85,SE,146,0.0,3.0,63,0.00,,---,0.00,62.00,VWS V14.00,2013-09-29 16:14:00,
2013-09-29 12:20:00,64.5,50.8,29.85,SSE,160,1.0,3.0,61,0.00,,---,0.00,62.00,VWS V14.00,2013-09-29 16:20:00,
2013-09-29 12:26:00,64.6,50.0,29.85,ESE,117,1.0,3.0,59,0.00,,---,0.00,62.00,VWS V14.00,2013-09-29 16:26:00,
2013-09-29 12:31:00,64.6,50.9,29.85,SSE,148,1.0,4.0,61,0.00,,---,0.00,127.00,VWS V14.00,2013-09-29 16:31:00,
2013-09-29 12:38:00,64.7,50.1,29.85,ESE,117,0.0,2.0,59,0.00,,---,0.00,462.00,VWS V14.00,2013-09-29 16:38:00,
2013-09-29 12:44:00,64.8,49.7,29.85,East,97,0.0,3.0,58,0.00,,---,0.00,186.00,VWS V14.00,2013-09-29 16:44:00,
2013-09-29 12:50:00,65.2,50.1,29.84,SSE,155,1.0,3.0,58,0.00,,---,0.00,63.00,VWS V14.00,2013-09-29 16:50:00,
2013-09-29 12:56:00,65.5,51.3,29.84,North,10,0.0,3.0,60,0.00,,---,0.00,255.00,VWS V14.00,2013-09-29 16:56:00,
2013-09-29 13:01:00,65.7,51.5,29.84,SSE,149,2.0,3.0,60,0.00,,---,0.00,63.00,VWS V14.00,2013-09-29 17:01:00,
2013-09-29 13:06:00,65.9,51.2,29.83,ESE,122,0.0,2.0,59,0.00,,---,0.00,176.00,VWS V14.00,2013-09-29 17:06:00,
2013-09-29 13:13:00,66.0,51.3,29.83,ESE,122,2.0,2.0,59,0.00,,---,0.00,113.00,VWS V14.00,2013-09-29 17:13:00,
2013-09-29 13:19:00,66.1,50.9,29.82,NE,52,1.0,2.0,58,0.00,,---,0.00,72.00,VWS V14.00,2013-09-29 17:19:00,
2013-09-29 13:25:00,66.3,50.2,29.82,SE,134,0.0,2.0,56,0.00,,---,0.00,63.00,VWS V14.00,2013-09-29 17:25:00,
2013-09-29 13:31:00,66.6,49.5,29.82,South,170,0.0,2.0,54,0.00,,---,0.00,74.00,VWS V14.00,2013-09-29 17:31:00,
2013-09-29 13:37:00,66.9,50.2,29.81,SSE,156,0.0,3.0,55,0.00,,---,0.00,65.00,VWS V14.00,2013-09-29 17:37:00,
2013-09-29 13:43:00,66.9,49.2,29.81,ENE,69,1.0,3.0,53,0.00,,---,0.00,58.00,VWS V14.00,2013-09-29 17:43:00,
2013-09-29 13:49:00,67.0,50.3,29.81,SE,146,0.0,3.0,55,0.00,,---,0.00,127.00,VWS V14.00,2013-09-29 17:49:00,
2013-09-29 13:55:00,67.2,50.0,29.81,SSW,200,3.0,3.0,54,0.00,,---,0.00,70.00,VWS V14.00,2013-09-29 17:55:00,
2013-09-29 14:01:00,67.6,50.9,29.81,SSE,161,1.0,3.0,55,0.00,,---,0.00,81.00,VWS V14.00,2013-09-29 18:01:00,
2013-09-29 14:07:00,67.6,50.9,29.81,South,170,0.0,3.0,55,0.00,,---,0.00,77.00,VWS V14.00,2013-09-29 18:07:00,
2013-09-29 14:13:00,67.6,51.4,29.80,NNW,346,0.0,3.0,56,0.00,,---,0.00,83.00,VWS V14.00,2013-09-29 18:13:00,
2013-09-29 14:19:00,67.8,52.0,29.80,SE,125,1.0,3.0,57,0.00,,---,0.00,46.00,VWS V14.00,2013-09-29 18:19:00,
2013-09-29 14:25:00,67.7,51.0,29.80,SE,146,0.0,3.0,55,0.00,,---,0.00,49.00,VWS V14.00,2013-09-29 18:25:00,
2013-09-29 14:31:00,67.4,51.2,29.80,SE,136,0.0,3.0,56,0.00,,---,0.00,26.00,VWS V14.00,2013-09-29 18:31:00,
2013-09-29 14:37:00,67.2,50.0,29.79,SE,135,1.0,1.0,54,0.00,,---,0.00,63.00,VWS V14.00,2013-09-29 18:37:00,
2013-09-29 14:43:00,67.4,49.7,29.79,WNW,285,1.0,2.0,53,0.00,,---,0.00,46.00,VWS V14.00,2013-09-29 18:43:00,
2013-09-29 14:49:00,67.7,50.5,29.79,SE,143,1.0,3.0,54,0.00,,---,0.00,72.00,VWS V14.00,2013-09-29 18:49:00,
2013-09-29 14:55:00,67.6,50.9,29.79,SSE,149,0.0,3.0,55,0.00,,---,0.00,30.00,VWS V14.00,2013-09-29 18:55:00,
2013-09-29 15:01:00,67.3,50.6,29.79,SSE,153,0.0,3.0,55,0.00,,---,0.00,26.00,VWS V14.00,2013-09-29 19:01:00,
2013-09-29 15:07:00,67.2,50.0,29.79,SSE,163,0.0,1.0,54,0.00,,---,0.00,53.00,VWS V14.00,2013-09-29 19:07:00,
2013-09-29 15:13:00,67.2,50.5,29.78,SSE,163,0.0,2.0,55,0.00,,---,0.00,65.00,VWS V14.00,2013-09-29 19:13:00,
2013-09-29 15:19:00,67.4,49.7,29.78,SE,124,0.0,2.0,53,0.00,,---,0.00,53.00,VWS V14.00,2013-09-29 19:19:00,
2013-09-29 15:25:00,67.6,50.9,29.78,SSE,166,0.0,2.0,55,0.00,,---,0.00,81.00,VWS V14.00,2013-09-29 19:25:00,
2013-09-29 15:31:00,67.8,50.1,29.78,South,180,1.0,2.0,53,0.00,,---,0.00,37.00,VWS V14.00,2013-09-29 19:31:00,
2013-09-29 15:38:00,67.8,50.6,29.78,SSE,162,0.0,4.0,54,0.00,,---,0.00,28.00,VWS V14.00,2013-09-29 19:38:00,
2013-09-29 15:44:00,67.5,49.8,29.78,South,171,0.0,4.0,53,0.00,,---,0.00,44.00,VWS V14.00,2013-09-29 19:44:00,
2013-09-29 15:48:00,67.4,50.7,29.78,SSE,165,0.0,4.0,55,0.00,,---,0.00,23.00,VWS V14.00,2013-09-29 19:48:00,
2013-09-29 15:54:00,67.1,51.8,29.78,ENE,71,0.0,4.0,58,0.00,,---,0.00,26.00,VWS V14.00,2013-09-29 19:54:00,
2013-09-29 16:00:00,67.0,50.3,29.77,ENE,72,0.0,4.0,55,0.00,,---,0.00,32.00,VWS V14.00,2013-09-29 20:00:00,
2013-09-29 16:06:00,66.8,50.1,29.77,SE,135,0.0,2.0,55,0.00,,---,0.00,28.00,VWS V14.00,2013-09-29 20:06:00,
2013-09-29 16:12:00,66.8,50.1,29.77,SE,135,0.0,2.0,55,0.00,,---,0.00,26.00,VWS V14.00,2013-09-29 20:12:00,
2013-09-29 16:18:00,66.8,50.6,29.77,SE,135,0.0,2.0,56,0.00,,---,0.00,39.00,VWS V14.00,2013-09-29 20:18:00,
2013-09-29 16:24:00,66.7,51.5,29.77,SE,135,0.0,2.0,58,0.00,,---,0.00,42.00,VWS V14.00,2013-09-29 20:24:00,
2013-09-29 16:30:00,66.8,51.6,29.77,SE,136,0.0,2.0,58,0.00,,---,0.00,53.00,VWS V14.00,2013-09-29 20:30:00,
2013-09-29 16:36:00,67.0,51.3,29.77,SE,133,0.0,1.0,57,0.00,,---,0.00,76.00,VWS V14.00,2013-09-29 20:36:00,
2013-09-29 16:42:00,67.4,51.7,29.77,SSE,147,0.0,2.0,57,0.00,,---,0.00,54.00,VWS V14.00,2013-09-29 20:42:00,
2013-09-29 16:48:00,67.6,50.9,29.76,South,173,0.0,2.0,55,0.00,,---,0.00,172.00,VWS V14.00,2013-09-29 20:48:00,
2013-09-29 16:54:00,67.6,50.9,29.76,South,172,2.0,2.0,55,0.00,,---,0.00,25.00,VWS V14.00,2013-09-29 20:54:00,
2013-09-29 17:00:00,67.5,51.3,29.76,South,171,0.0,2.0,56,0.00,,---,0.00,47.00,VWS V14.00,2013-09-29 21:00:00,
2013-09-29 17:06:00,67.3,52.0,29.77,South,172,0.0,1.0,58,0.00,,---,0.00,21.00,VWS V14.00,2013-09-29 21:06:00,
2013-09-29 17:12:00,67.0,51.8,29.77,South,172,0.0,1.0,58,0.00,,---,0.00,16.00,VWS V14.00,2013-09-29 21:12:00,
2013-09-29 17:18:00,66.8,50.6,29.77,South,172,0.0,1.0,56,0.00,,---,0.00,19.00,VWS V14.00,2013-09-29 21:18:00,
2013-09-29 17:24:00,66.7,51.0,29.77,South,172,0.0,1.0,57,0.00,,---,0.00,18.00,VWS V14.00,2013-09-29 21:24:00,
2013-09-29 17:30:00,66.6,51.4,29.77,WNW,290,0.0,1.0,58,0.00,,---,0.00,9.00,VWS V14.00,2013-09-29 21:30:00,
2013-09-29 17:36:00,66.5,50.8,29.77,WNW,289,0.0,0.0,57,0.00,,---,0.00,14.00,VWS V14.00,2013-09-29 21:36:00,
2013-09-29 17:42:00,66.3,50.6,29.77,WNW,289,0.0,0.0,57,0.00,,---,0.00,16.00,VWS V14.00,2013-09-29 21:42:00,
2013-09-29 17:49:00,66.2,51.5,29.77,WNW,289,0.0,0.0,59,0.00,,---,0.00,12.00,VWS V14.00,2013-09-29 21:49:00,
2013-09-29 17:55:00,66.1,51.4,29.77,WNW,289,0.0,0.0,59,0.00,,---,0.00,7.00,VWS V14.00,2013-09-29 21:55:00,
2013-09-29 18:01:00,66.0,50.8,29.77,WNW,289,0.0,0.0,58,0.00,,---,0.00,7.00,VWS V14.00,2013-09-29 22:01:00,
2013-09-29 18:07:00,65.9,50.7,29.77,WNW,289,0.0,0.0,58,0.00,,---,0.00,5.00,VWS V14.00,2013-09-29 22:07:00,
2013-09-29 18:13:00,65.7,51.5,29.77,WNW,289,0.0,0.0,60,0.00,,---,0.00,5.00,VWS V14.00,2013-09-29 22:13:00,
2013-09-29 18:19:00,65.4,51.6,29.77,WNW,289,0.0,0.0,61,0.00,,---,0.00,0.00,VWS V14.00,2013-09-29 22:19:00,
2013-09-29 18:25:00,65.3,52.0,29.77,WNW,289,0.0,0.0,62,0.00,,---,0.00,0.00,VWS V14.00,2013-09-29 22:25:00,
2013-09-29 18:31:00,65.0,51.7,29.77,WNW,289,0.0,0.0,62,0.00,,---,0.00,0.00,VWS V14.00,2013-09-29 22:31:00,
2013-09-29 18:37:00,64.7,52.3,29.77,WNW,289,0.0,0.0,64,0.00,,---,0.00,0.00,VWS V14.00,2013-09-29 22:37:00,
2013-09-29 18:43:00,64.4,52.4,29.77,WNW,289,0.0,0.0,65,0.00,,---,0.00,0.00,VWS V14.00,2013-09-29 22:43:00,
2013-09-29 18:49:00,63.9,52.3,29.77,WNW,289,0.0,0.0,66,0.00,,---,0.00,0.00,VWS V14.00,2013-09-29 22:49:00,
2013-09-29 18:55:00,63.1,52.0,29.77,WNW,289,0.0,0.0,67,0.00,,---,0.00,0.00,VWS V14.00,2013-09-29 22:55:00,
2013-09-29 19:01:00,62.4,51.7,29.77,WNW,289,0.0,0.0,68,0.00,,---,0.00,0.00,VWS V14.00,2013-09-29 23:01:00,
2013-09-29 19:07:00,61.7,51.4,29.77,WNW,289,0.0,0.0,69,0.00,,---,0.00,0.00,VWS V14.00,2013-09-29 23:07:00,
2013-09-29 19:13:00,61.3,51.5,29.77,WNW,289,0.0,0.0,70,0.00,,---,0.00,0.00,VWS V14.00,2013-09-29 23:13:00,
2013-09-29 19:20:00,61.0,51.5,29.77,WNW,289,0.0,0.0,71,0.00,,---,0.00,0.00,VWS V14.00,2013-09-29 23:20:00,
2013-09-29 19:26:00,60.7,51.2,29.77,WNW,289,0.0,0.0,71,0.00,,---,0.00,0.00,VWS V14.00,2013-09-29 23:26:00,
2013-09-29 19:31:00,60.4,51.3,29.77,WNW,289,0.0,0.0,72,0.00,,---,0.00,0.00,VWS V14.00,2013-09-29 23:31:00,
2013-09-29 19:38:00,60.0,51.3,29.78,WNW,289,0.0,0.0,73,0.00,,---,0.00,0.00,VWS V14.00,2013-09-29 23:38:00,
2013-09-29 19:44:00,59.7,51.0,29.77,WNW,289,0.0,0.0,73,0.00,,---,0.00,0.00,VWS V14.00,2013-09-29 23:44:00,
2013-09-29 19:50:00,59.4,50.8,29.77,WNW,289,0.0,0.0,73,0.00,,---,0.00,0.00,VWS V14.00,2013-09-29 23:50:00,
2013-09-29 19:56:00,59.3,51.0,29.77,WNW,289,0.0,0.0,74,0.00,,---,0.00,0.00,VWS V14.00,2013-09-29 23:56:00,
2013-09-29 20:01:00,59.2,50.9,29.77,WNW,289,0.0,0.0,74,0.00,,---,0.00,0.00,VWS V14.00,2013-09-30 00:01:00,
2013-09-29 20:08:00,59.1,51.2,29.77,WNW,289,0.0,0.0,75,0.00,,---,0.00,0.00,VWS V14.00,2013-09-30 00:08:00,
2013-09-29 20:16:00,58.9,51.0,29.78,WNW,289,0.0,0.0,75,0.00,,---,0.00,0.00,VWS V14.00,2013-09-30 00:16:00,
2013-09-29 20:23:00,58.7,50.8,29.78,WNW,289,0.0,0.0,75,0.00,,---,0.00,0.00,VWS V14.00,2013-09-30 00:23:00,
2013-09-29 20:29:00,58.5,50.6,29.78,WNW,289,0.0,0.0,75,0.00,,---,0.00,0.00,VWS V14.00,2013-09-30 00:29:00,
2013-09-29 20:35:00,58.4,50.5,29.78,WNW,289,0.0,0.0,75,0.00,,---,0.00,0.00,VWS V14.00,2013-09-30 00:35:00,
2013-09-29 20:41:00,58.2,50.7,29.78,WNW,289,0.0,0.0,76,0.00,,---,0.00,0.00,VWS V14.00,2013-09-30 00:41:00,
2013-09-29 20:47:00,58.0,50.8,29.78,WNW,289,0.0,0.0,77,0.00,,---,0.00,0.00,VWS V14.00,2013-09-30 00:47:00,
2013-09-29 20:53:00,57.8,50.3,29.78,WNW,289,0.0,0.0,76,0.00,,---,0.00,0.00,VWS V14.00,2013-09-30 00:53:00,
2013-09-29 20:59:00,57.6,50.1,29.78,WNW,289,0.0,1.0,76,0.00,,---,0.00,0.00,VWS V14.00,2013-09-30 00:59:00,
2013-09-29 21:05:00,57.6,50.5,29.78,WNW,289,0.0,1.0,77,0.00,,---,0.00,0.00,VWS V14.00,2013-09-30 01:05:00,
2013-09-29 21:11:00,57.5,50.4,29.78,WNW,289,0.0,1.0,77,0.00,,---,0.00,0.00,VWS V14.00,2013-09-30 01:11:00,
2013-09-29 21:17:00,57.3,49.8,29.78,WNW,289,0.0,1.0,76,0.00,,---,0.00,0.00,VWS V14.00,2013-09-30 01:17:00,
2013-09-29 21:23:00,57.3,50.2,29.78,WNW,289,0.0,1.0,77,0.00,,---,0.00,0.00,VWS V14.00,2013-09-30 01:23:00,
2013-09-29 21:29:00,57.4,49.9,29.78,WNW,289,0.0,1.0,76,0.00,,---,0.00,0.00,VWS V14.00,2013-09-30 01:29:00,
2013-09-29 21:35:00,57.3,49.8,29.78,WNW,289,0.0,0.0,76,0.00,,---,0.00,0.00,VWS V14.00,2013-09-30 01:35:00,
2013-09-29 21:41:00,57.3,49.8,29.78,WNW,289,0.0,0.0,76,0.00,,---,0.00,0.00,VWS V14.00,2013-09-30 01:41:00,
2013-09-29 21:47:00,57.2,49.7,29.78,WNW,289,0.0,0.0,76,0.00,,---,0.00,0.00,VWS V14.00,2013-09-30 01:47:00,
2013-09-29 21:53:00,57.2,49.7,29.78,WNW,289,0.0,0.0,76,0.00,,---,0.00,0.00,VWS V14.00,2013-09-30 01:53:00,
2013-09-29 21:59:00,57.2,49.7,29.78,WNW,289,0.0,0.0,76,0.00,,---,0.00,0.00,VWS V14.00,2013-09-30 01:59:00,
2013-09-29 22:06:00,57.2,49.7,29.78,WNW,289,0.0,0.0,76,0.00,,---,0.00,0.00,VWS V14.00,2013-09-30 02:06:00,
2013-09-29 22:12:00,57.2,49.4,29.78,WNW,289,0.0,0.0,75,0.00,,---,0.00,0.00,VWS V14.00,2013-09-30 02:12:00,
2013-09-29 22:18:00,57.2,49.7,29.78,WNW,289,0.0,0.0,76,0.00,,---,0.00,0.00,VWS V14.00,2013-09-30 02:18:00,
2013-09-29 22:24:00,57.1,49.6,29.78,WNW,289,0.0,0.0,76,0.00,,---,0.00,0.00,VWS V14.00,2013-09-30 02:24:00,
2013-09-29 22:30:00,56.9,49.4,29.78,WNW,289,0.0,0.0,76,0.00,,---,0.00,0.00,VWS V14.00,2013-09-30 02:30:00,
2013-09-29 22:36:00,56.8,49.3,29.78,WNW,289,0.0,0.0,76,0.00,,---,0.00,0.00,VWS V14.00,2013-09-30 02:36:00,
2013-09-29 22:42:00,56.6,49.8,29.78,WNW,289,0.0,0.0,78,0.00,,---,0.00,0.00,VWS V14.00,2013-09-30 02:42:00,
2013-09-29 22:48:00,56.2,49.4,29.78,WNW,289,0.0,0.0,78,0.00,,---,0.00,0.00,VWS V14.00,2013-09-30 02:48:00,
2013-09-29 22:54:00,55.8,49.4,29.78,WNW,289,0.0,0.0,79,0.00,,---,0.00,0.00,VWS V14.00,2013-09-30 02:54:00,
2013-09-29 23:00:00,55.5,49.4,29.78,WNW,289,0.0,0.0,80,0.00,,---,0.00,0.00,VWS V14.00,2013-09-30 03:00:00,
2013-09-29 23:06:00,55.2,49.2,29.78,WNW,289,0.0,0.0,80,0.00,,---,0.00,0.00,VWS V14.00,2013-09-30 03:06:00,
2013-09-29 23:12:00,54.9,49.2,29.78,WNW,289,0.0,1.0,81,0.00,,---,0.00,0.00,VWS V14.00,2013-09-30 03:12:00,
2013-09-29 23:18:00,54.6,48.9,29.78,WNW,289,0.0,1.0,81,0.00,,---,0.00,0.00,VWS V14.00,2013-09-30 03:18:00,
2013-09-29 23:24:00,54.2,48.5,29.78,WNW,289,0.0,1.0,81,0.00,,---,0.00,0.00,VWS V14.00,2013-09-30 03:24:00,
2013-09-29 23:30:00,53.9,48.5,29.78,WNW,289,0.0,1.0,82,0.00,,---,0.00,0.00,VWS V14.00,2013-09-30 03:30:00,
2013-09-29 23:36:00,53.5,48.5,29.78,WNW,289,0.0,0.0,83,0.00,,---,0.00,0.00,VWS V14.00,2013-09-30 03:36:00,
2013-09-29 23:42:00,53.2,48.5,29.78,WNW,289,0.0,0.0,84,0.00,,---,0.00,0.00,VWS V14.00,2013-09-30 03:42:00,
2013-09-29 23:48:00,53.0,48.3,29.78,WNW,289,0.0,0.0,84,0.00,,---,0.00,0.00,VWS V14.00,2013-09-30 03:48:00,
2013-09-29 23:54:00,53.0,48.3,29.77,WNW,289,0.0,0.0,84,0.00,,---,0.00,0.00,VWS V14.00,2013-09-30 03:54:00,